TimePDT,TemperatureF,Dew PointF,Humidity,Sea Level PressureIn,VisibilityMPH,Wind Direction,Wind SpeedMPH,Gust SpeedMPH,PrecipitationIn,Events,Conditions,WindDirDegrees,DateUTC
12:00 AM,66.2,50.0,56,30.23,10.0,SSW,9.2,-,N/A,,Mostly Cloudy,210,2013-08-20 07:00:00
12:20 AM,68.0,48.2,49,30.23,10.0,SSW,12.7,-,N/A,,Overcast,200,2013-08-20 07:20:00
12:35 AM,68.0,50.0,52,30.23,10.0,South,8.1,-,N/A,,Overcast,170,2013-08-20 07:35:00
1:00 AM,68.0,46.4,46,30.22,10.0,SSW,9.2,-,N/A,,Overcast,200,2013-08-20 08:00:00
1:20 AM,64.4,51.8,64,30.21,10.0,SE,6.9,-,N/A,,Overcast,130,2013-08-20 08:20:00
1:40 AM,66.2,50.0,56,30.20,10.0,East,4.6,-,N/A,,Scattered Clouds,100,2013-08-20 08:40:00
2:00 AM,66.2,48.2,52,30.20,10.0,Calm,Calm,-,N/A,,Scattered Clouds,0,2013-08-20 09:00:00
2:20 AM,66.2,50.0,56,30.20,10.0,West,4.6,-,N/A,,Mostly Cloudy,280,2013-08-20 09:20:00
2:40 AM,64.4,50.0,59,30.20,10.0,Calm,Calm,-,N/A,,Scattered Clouds,0,2013-08-20 09:40:00
3:00 AM,64.4,51.8,64,30.19,10.0,East,5.8,-,N/A,,Scattered Clouds,80,2013-08-20 10:00:00
3:20 AM,62.6,50.0,63,30.19,10.0,East,4.6,-,N/A,,Partly Cloudy,100,2013-08-20 10:20:00
3:40 AM,64.4,48.2,56,30.19,10.0,SSW,5.8,-,N/A,,Clear,210,2013-08-20 10:40:00
4:00 AM,62.6,50.0,63,30.19,10.0,Calm,Calm,-,N/A,,Clear,0,2013-08-20 11:00:00
4:20 AM,60.8,50.0,68,30.19,10.0,Calm,Calm,-,N/A,,Clear,0,2013-08-20 11:20:00
4:40 AM,60.8,50.0,68,30.19,10.0,SSW,4.6,-,N/A,,Clear,200,2013-08-20 11:40:00
5:00 AM,60.8,48.2,63,30.19,10.0,South,3.5,-,N/A,,Clear,170,2013-08-20 12:00:00
5:20 AM,60.8,48.2,63,30.19,10.0,SW,3.5,-,N/A,,Clear,230,2013-08-20 12:20:00
5:40 AM,59.0,48.2,67,30.20,10.0,Calm,Calm,-,N/A,,Clear,0,2013-08-20 12:40:00
6:00 AM,59.0,46.4,63,30.20,10.0,South,4.6,-,N/A,,Clear,170,2013-08-20 13:00:00
6:20 AM,60.8,46.4,59,30.20,10.0,SSW,4.6,-,N/A,,Clear,200,2013-08-20 13:20:00
6:40 AM,60.8,46.4,59,30.21,10.0,SSW,6.9,-,N/A,,Clear,200,2013-08-20 13:40:00
7:00 AM,62.6,48.2,59,30.21,10.0,SSW,3.5,-,N/A,,Clear,210,2013-08-20 14:00:00
7:20 AM,64.4,50.0,59,30.21,10.0,Calm,Calm,-,N/A,,Clear,0,2013-08-20 14:20:00
7:40 AM,64.4,48.2,56,30.22,10.0,NE,3.5,-,N/A,,Clear,40,2013-08-20 14:40:00
5:55 PM,68.0,55.4,64,30.23,10.0,North,10.4,-,N/A,,Clear,360,2013-08-21 00:55:00
7:20 PM,62.6,53.6,72,30.23,10.0,SSE,6.9,-,N/A,,Clear,160,2013-08-21 02:20:00
7:40 PM,62.6,53.6,72,30.24,10.0,NNW,5.8,-,N/A,,Clear,340,2013-08-21 02:40:00